1997-04-04 00:00,7.000,
1997-04-05 00:00,10.000,
1997-04-06 00:00,8.000,
1997-04-07 00:00,9.000,
1997-04-08 00:00,7.000,
1997-04-09 00:00,5.000,
1997-04-10 00:00,7.000,
1997-04-11 00:00,10.000,
1997-04-12 00:00,10.000,
1997-04-13 00:00,13.000,
1997-04-14 00:00,6.000,
1997-04-15 00:00,12.000,
1997-04-16 00:00,10.000,
1997-04-17 00:00,10.000,
1997-04-18 00:00,12.000,
1997-04-19 00:00,9.000,
1997-04-20 00:00,17.000,
1997-04-21 00:00,19.000,
1997-04-22 00:00,19.000,
1997-04-23 00:00,18.000,
1997-04-24 00:00,19.000,
1997-04-25 00:00,15.000,
1997-04-26 00:00,14.000,
1997-04-27 00:00,15.000,
1997-04-28 00:00,18.000,
1997-04-29 00:00,19.000,
1997-04-30 00:00,16.000,
1997-05-01 00:00,12.000,
1997-05-02 00:00,16.000,
1997-05-03 00:00,16.000,
1997-05-04 00:00,20.000,
1997-05-05 00:00,21.000,
1997-05-06 00:00,20.000,
1997-05-07 00:00,21.000,
1997-05-08 00:00,23.000,
1997-05-09 00:00,21.000,
1997-05-10 00:00,25.000,
1997-05-11 00:00,24.000,
1997-05-12 00:00,25.000,
1997-05-13 00:00,28.000,
1997-05-14 00:00,28.000,
1997-05-15 00:00,29.000,
1997-05-16 00:00,24.000,
1997-05-17 00:00,27.000,
1997-05-18 00:00,25.000,
1997-05-19 00:00,26.000,
1997-05-20 00:00,27.000,
1997-05-21 00:00,30.000,
1997-05-22 00:00,30.000,
1997-05-23 00:00,27.000,
1997-05-24 00:00,26.000,
1997-05-25 00:00,26.000,
1997-05-26 00:00,27.000,
1997-05-27 00:00,25.000,
1997-05-28 00:00,24.000,
1997-05-29 00:00,24.000,
1997-05-30 00:00,23.000,
1997-05-31 00:00,21.000,
1997-06-01 00:00,21.000,
1997-06-02 00:00,24.000,
1997-06-03 00:00,24.000,
1997-06-04 00:00,27.000,
1997-06-05 00:00,27.000,
1997-06-06 00:00,26.000,
1997-06-07 00:00,24.000,
1997-06-08 00:00,24.000,
1997-06-09 00:00,24.000,
1997-06-10 00:00,24.000,
1997-06-11 00:00,26.000,
1997-06-12 00:00,27.000,
1997-06-13 00:00,27.000,
1997-09-17 00:00,25.000,
1997-09-18 00:00,27.000,
1997-09-19 00:00,24.000,
1997-09-22 00:00,23.000,
1997-09-23 00:00,25.000,
1997-09-24 00:00,22.000,
1997-09-25 00:00,23.000,
1997-09-26 00:00,24.000,
1997-09-27 00:00,22.000,
1997-09-28 00:00,25.000,
1997-09-29 00:00,23.000,
1997-09-30 00:00,24.000,
1997-10-01 00:00,23.000,
1997-10-02 00:00,23.000,
1997-10-03 00:00,22.000,
1997-10-04 00:00,24.000,
1997-10-05 00:00,23.000,
1997-10-06 00:00,23.000,
1997-10-07 00:00,27.000,
1997-10-08 00:00,29.000,
1997-10-09 00:00,29.000,
1997-10-10 00:00,25.000,
1997-10-11 00:00,26.000,
1997-10-12 00:00,20.000,
1997-10-13 00:00,22.000,
1997-10-14 00:00,24.000,
1997-10-15 00:00,22.000,
1997-10-16 00:00,21.000,
1997-10-17 00:00,18.000,
1997-10-18 00:00,15.000,
1997-10-19 00:00,15.000,
1997-10-20 00:00,15.000,
1997-10-21 00:00,16.000,
1997-10-22 00:00,16.000,
1997-10-23 00:00,17.000,
1997-10-24 00:00,20.000,
1997-10-25 00:00,19.000,
1997-10-26 00:00,14.000,
1997-10-27 00:00,15.000,
1997-10-28 00:00,16.000,
1997-10-29 00:00,20.000,
1997-10-30 00:00,19.000,
1997-10-31 00:00,16.000,
1997-11-01 00:00,22.000,
1997-11-02 00:00,21.000,
1997-11-03 00:00,22.000,
1997-11-04 00:00,19.000,
1997-11-05 00:00,19.000,
1997-11-06 00:00,19.000,
1997-11-07 00:00,20.000,
1997-11-08 00:00,20.000,
1997-11-09 00:00,18.000,
1997-11-10 00:00,20.000,
1997-11-11 00:00,18.000,
1997-11-12 00:00,19.000,
1997-11-13 00:00,19.000,
1997-11-14 00:00,17.000,
1997-11-15 00:00,17.000,
1997-11-16 00:00,17.000,
1997-11-17 00:00,14.000,
1997-11-18 00:00,14.000,
1997-11-19 00:00,14.000,
1997-11-20 00:00,12.000,
1997-11-21 00:00,16.000,
1997-11-22 00:00,19.000,
1997-11-23 00:00,19.000,
1997-11-24 00:00,19.000,
1997-11-25 00:00,20.000,
1997-11-26 00:00,18.000,
1997-11-27 00:00,18.000,
1997-11-28 00:00,15.000,
1997-11-29 00:00,19.000,
1997-11-30 00:00,17.000,
1997-12-01 00:00,16.000,
1997-12-02 00:00,18.000,
1997-12-03 00:00,17.000,
1997-12-04 00:00,16.000,
1997-12-05 00:00,19.000,
1997-12-06 00:00,18.000,
1997-12-07 00:00,17.000,
1997-12-08 00:00,14.000,
1997-12-09 00:00,10.000,
1997-12-10 00:00,12.000,
1997-12-11 00:00,12.000,
1997-12-12 00:00,12.000,
1997-12-13 00:00,14.000,
1997-12-14 00:00,15.000,
1997-12-15 00:00,10.000,
1997-12-16 00:00,10.000,
1997-12-17 00:00,6.000,
1997-12-18 00:00,5.000,
1997-12-19 00:00,5.000,
1997-12-20 00:00,5.000,
1997-12-21 00:00,11.000,
1997-12-22 00:00,15.000,
1997-12-23 00:00,15.000,
1997-12-24 00:00,16.000,
1997-12-25 00:00,15.000,
1997-12-26 00:00,14.000,
1997-12-27 00:00,10.000,
1997-12-28 00:00,12.000,
1997-12-29 00:00,13.000,
1997-12-30 00:00,12.000,
1997-12-31 00:00,11.000,
1998-01-01 00:00,12.000,
1998-01-02 00:00,17.000,
1998-01-03 00:00,14.000,
1998-01-04 00:00,13.000,
1998-01-05 00:00,15.000,
1998-01-06 00:00,12.000,
1998-01-07 00:00,13.000,
1998-01-08 00:00,14.000,
1998-01-09 00:00,16.000,
1998-01-10 00:00,16.000,
1998-01-11 00:00,15.000,
1998-01-12 00:00,16.000,
1998-01-13 00:00,16.000,
1998-01-14 00:00,15.000,
1998-01-15 00:00,14.000,
1998-01-16 00:00,15.000,
1998-01-17 00:00,16.000,
1998-01-18 00:00,16.000,
1998-01-19 00:00,16.000,
1998-01-20 00:00,13.000,
1998-01-21 00:00,14.000,
1998-01-22 00:00,12.000,
1998-01-23 00:00,11.000,
1998-01-24 00:00,12.000,
1998-01-25 00:00,8.000,
1998-01-26 00:00,7.000,
1998-01-27 00:00,7.000,
1998-01-28 00:00,8.000,
1998-01-29 00:00,9.000,
1998-01-30 00:00,8.000,
1998-01-31 00:00,8.000,
1998-02-01 00:00,8.000,
1998-02-02 00:00,13.000,
1998-02-03 00:00,15.000,
1998-02-04 00:00,15.000,
1998-02-05 00:00,14.000,
1998-02-06 00:00,15.000,
1998-02-07 00:00,13.000,
1998-02-08 00:00,13.000,
1998-02-09 00:00,12.000,
1998-02-10 00:00,10.000,
1998-02-11 00:00,12.000,
1998-02-12 00:00,15.000,
1998-02-13 00:00,17.000,
1998-02-14 00:00,15.000,
1998-02-15 00:00,16.000,
1998-02-16 00:00,16.000,
1998-02-17 00:00,15.000,
1998-02-18 00:00,12.000,
1998-02-19 00:00,9.000,
1998-02-20 00:00,17.000,
1998-02-21 00:00,17.000,
1998-02-22 00:00,17.000,
1998-02-23 00:00,17.000,
1998-02-24 00:00,18.000,
1998-02-25 00:00,17.000,
1998-02-26 00:00,14.000,
1998-02-27 00:00,13.000,
1998-02-28 00:00,16.000,
1998-03-01 00:00,15.000,
1998-03-02 00:00,17.000,
1998-03-03 00:00,18.000,
1998-03-04 00:00,18.000,
1998-03-05 00:00,16.000,
1998-03-06 00:00,15.000,
1998-03-07 00:00,15.000,
1998-03-08 00:00,15.000,
1998-03-09 00:00,14.000,
1998-03-10 00:00,14.000,
1998-03-11 00:00,12.000,
1998-03-12 00:00,10.000,
1998-03-13 00:00,12.000,
1998-03-14 00:00,11.000,
1998-03-15 00:00,10.000,
1998-03-16 00:00,8.000,
1998-03-17 00:00,6.000,
1998-03-18 00:00,5.000,
1998-03-19 00:00,8.000,
1998-03-20 00:00,12.000,
1998-03-21 00:00,12.000,
1998-03-22 00:00,5.000,
1998-03-23 00:00,5.000,
1998-03-24 00:00,5.000,
1998-03-25 00:00,7.000,
1998-03-26 00:00,10.000,
1998-03-27 00:00,9.000,
1998-03-28 00:00,14.000,
1998-03-29 00:00,10.000,
1998-03-30 00:00,10.000,
1998-03-31 00:00,14.000,
1998-04-01 00:00,16.000,
1998-04-02 00:00,15.000,
1998-04-03 00:00,16.000,
1998-04-04 00:00,20.000,
1998-04-05 00:00,20.000,
1998-04-06 00:00,21.000,
1998-04-07 00:00,19.000,
1998-04-08 00:00,23.000,
1998-04-09 00:00,25.000,
1998-04-10 00:00,26.000,
1998-04-11 00:00,27.000,
1998-04-12 00:00,26.000,
1998-04-13 00:00,24.000,
1998-04-14 00:00,19.000,
1998-04-15 00:00,22.000,
1998-04-16 00:00,22.000,
1998-04-17 00:00,21.000,
1998-04-18 00:00,19.000,
1998-04-19 00:00,17.000,
1998-04-20 00:00,18.000,
1998-04-21 00:00,19.000,
1998-04-22 00:00,20.000,
1998-04-23 00:00,16.000,
1998-04-24 00:00,17.000,
1998-04-25 00:00,11.000,
1998-04-26 00:00,13.000,
1998-04-27 00:00,19.000,
1998-04-28 00:00,17.000,
1998-04-29 00:00,17.000,
1998-04-30 00:00,17.000,
1998-05-01 00:00,25.000,
1998-05-02 00:00,25.000,
1998-05-03 00:00,20.000,
1998-05-04 00:00,24.000,
1998-05-05 00:00,22.000,
1998-05-06 00:00,20.000,
1998-05-07 00:00,24.000,
1998-05-08 00:00,25.000,
1998-05-09 00:00,24.000,
1998-05-10 00:00,24.000,
1998-05-11 00:00,19.000,
1998-05-12 00:00,19.000,
1998-05-13 00:00,18.000,
1998-05-14 00:00,19.000,
1998-05-15 00:00,24.000,
1998-05-16 00:00,23.000,
1998-05-17 00:00,16.000,
1998-05-18 00:00,20.000,
1998-05-19 00:00,16.000,
1998-05-20 00:00,17.000,
1998-05-21 00:00,21.000,
1998-05-22 00:00,22.000,
1998-05-23 00:00,23.000,
1998-05-24 00:00,24.000,
1998-05-25 00:00,25.000,
1998-05-26 00:00,20.000,
1998-05-27 00:00,23.000,
1998-05-28 00:00,25.000,
1998-05-29 00:00,26.000,
1998-05-30 00:00,24.000,
1998-05-31 00:00,26.000,
1998-06-01 00:00,27.000,
1998-06-02 00:00,28.000,
1998-06-03 00:00,28.000,
1998-06-04 00:00,27.000,
1998-06-05 00:00,26.000,
1998-06-06 00:00,28.000,
1998-06-07 00:00,28.000,
1998-06-08 00:00,28.000,
1998-06-09 00:00,28.000,
1998-06-10 00:00,28.000,
1998-06-11 00:00,26.000,
1998-06-12 00:00,29.000,
1998-06-13 00:00,31.000,
1998-06-14 00:00,27.000,
1998-06-15 00:00,28.000,
1998-09-15 00:00,30.000,
1998-09-16 00:00,27.000,
1998-09-17 00:00,27.000,
1998-09-18 00:00,26.000,
1998-09-19 00:00,23.000,
1998-09-20 00:00,23.000,
1998-09-21 00:00,20.000,
1998-09-22 00:00,23.000,
1998-09-23 00:00,24.000,
1998-09-24 00:00,23.000,
1998-09-25 00:00,25.000,
1998-09-26 00:00,26.000,
1998-09-27 00:00,26.000,
1998-09-28 00:00,27.000,
1998-09-29 00:00,24.000,
1998-09-30 00:00,25.000,
1998-10-01 00:00,26.000,
1998-10-02 00:00,28.000,
1998-10-03 00:00,27.000,
1998-10-04 00:00,22.000,
1998-10-05 00:00,26.000,
1998-10-06 00:00,27.000,
1998-10-07 00:00,29.000,
1998-10-08 00:00,29.000,
1998-10-09 00:00,27.000,
1998-10-10 00:00,27.000,
1998-10-11 00:00,29.000,
1998-10-12 00:00,30.000,
1998-10-13 00:00,25.000,
1998-10-14 00:00,23.000,
1998-10-15 00:00,20.000,
1998-10-16 00:00,20.000,
1998-10-17 00:00,21.000,
1998-10-18 00:00,23.000,
1998-10-19 00:00,23.000,
1998-10-20 00:00,24.000,
1998-10-21 00:00,25.000,
1998-10-22 00:00,24.000,
1998-10-23 00:00,23.000,
1998-10-24 00:00,19.000,
1998-10-25 00:00,19.000,
1998-10-26 00:00,18.000,
1998-10-27 00:00,18.000,
1998-10-28 00:00,17.000,
1998-10-29 00:00,16.000,
1998-10-30 00:00,18.000,
1998-10-31 00:00,19.000,
1998-11-01 00:00,19.000,
1998-11-02 00:00,20.000,
1998-11-03 00:00,20.000,
1998-11-04 00:00,19.000,
1998-11-05 00:00,19.000,
1998-11-06 00:00,24.000,
1998-11-07 00:00,23.000,
1998-11-08 00:00,23.000,
1998-11-09 00:00,16.000,
1998-11-10 00:00,17.000,
1998-11-11 00:00,18.000,
1998-11-12 00:00,17.000,
1998-11-13 00:00,18.000,
1998-11-14 00:00,17.000,
1998-11-15 00:00,17.000,
1998-11-16 00:00,16.000,
1998-11-17 00:00,17.000,
1998-11-18 00:00,14.000,
1998-11-19 00:00,14.000,
1998-11-20 00:00,15.000,
1998-11-21 00:00,15.000,
1998-11-22 00:00,17.000,
1998-11-23 00:00,20.000,
1998-11-24 00:00,17.000,
1998-11-25 00:00,15.000,
1998-11-26 00:00,15.000,
1998-11-27 00:00,15.000,
1998-11-28 00:00,16.000,
1998-11-29 00:00,11.000,
1998-11-30 00:00,15.000,
1998-12-01 00:00,17.000,
1998-12-02 00:00,15.000,
1998-12-03 00:00,15.000,
1998-12-04 00:00,14.000,
1998-12-05 00:00,17.000,
1998-12-06 00:00,16.000,
1998-12-07 00:00,15.000,
1998-12-08 00:00,15.000,
1998-12-09 00:00,13.000,
1998-12-10 00:00,8.000,
1998-12-11 00:00,8.000,
1998-12-12 00:00,12.000,
1998-12-13 00:00,14.000,
1998-12-14 00:00,15.000,
1998-12-15 00:00,10.000,
1998-12-16 00:00,12.000,
1998-12-17 00:00,11.000,
1998-12-18 00:00,10.000,
1998-12-19 00:00,11.000,
1998-12-20 00:00,12.000,
1998-12-21 00:00,11.000,
1998-12-22 00:00,13.000,
1998-12-23 00:00,12.000,
1998-12-24 00:00,6.000,
1998-12-25 00:00,6.000,
1998-12-26 00:00,8.000,
1998-12-27 00:00,11.000,
1998-12-28 00:00,14.000,
1998-12-29 00:00,13.000,
1998-12-30 00:00,14.000,
1998-12-31 00:00,12.000,
1999-01-01 00:00,12.000,
1999-01-02 00:00,10.000,
1999-01-03 00:00,11.000,
1999-01-04 00:00,12.000,
1999-01-05 00:00,13.000,
1999-01-06 00:00,12.000,
1999-01-07 00:00,13.000,
1999-01-08 00:00,12.000,
1999-01-09 00:00,12.000,
1999-01-10 00:00,14.000,
1999-01-11 00:00,15.000,
1999-01-12 00:00,15.000,
1999-01-13 00:00,15.000,
1999-01-14 00:00,14.000,
1999-01-15 00:00,11.000,
1999-01-16 00:00,11.000,
1999-01-17 00:00,14.000,
1999-01-18 00:00,12.000,
1999-01-19 00:00,7.000,
1999-01-20 00:00,11.000,
1999-01-21 00:00,12.000,
1999-01-22 00:00,14.000,
1999-01-23 00:00,12.000,
1999-01-24 00:00,12.000,
1999-01-25 00:00,11.000,
1999-01-26 00:00,10.000,
1999-01-27 00:00,14.000,
1999-01-28 00:00,13.000,
1999-01-29 00:00,11.000,
1999-01-30 00:00,13.000,
1999-01-31 00:00,11.000,
1999-02-01 00:00,12.000,
1999-02-02 00:00,10.000,
1999-02-03 00:00,9.000,
1999-02-04 00:00,9.000,
1999-02-05 00:00,9.000,
1999-02-06 00:00,12.000,
1999-02-07 00:00,9.000,
1999-02-08 00:00,9.000,
1999-02-09 00:00,13.000,
1999-02-10 00:00,14.000,
1999-02-11 00:00,14.000,
1999-02-12 00:00,10.000,
1999-02-13 00:00,11.000,
1999-02-14 00:00,11.000,
1999-02-15 00:00,12.000,
1999-02-16 00:00,8.000,
1999-02-17 00:00,8.000,
1999-02-18 00:00,13.000,
1999-02-19 00:00,5.000,
1999-02-20 00:00,9.000,
1999-02-21 00:00,10.000,
1999-02-22 00:00,13.000,
1999-02-23 00:00,15.000,
1999-02-24 00:00,12.000,
1999-02-25 00:00,12.000,
1999-02-26 00:00,12.000,
1999-02-27 00:00,12.000,
1999-02-28 00:00,14.000,
1999-03-01 00:00,16.000,
1999-03-02 00:00,17.000,
1999-03-03 00:00,18.000,
1999-03-04 00:00,19.000,
1999-03-05 00:00,16.000,
1999-03-06 00:00,17.000,
1999-03-07 00:00,18.000,
1999-03-08 00:00,19.000,
1999-03-09 00:00,18.000,
1999-03-10 00:00,15.000,
1999-03-11 00:00,19.000,
1999-03-12 00:00,19.000,
1999-03-13 00:00,19.000,
1999-03-14 00:00,18.000,
1999-03-15 00:00,12.000,
1999-03-16 00:00,14.000,
1999-03-17 00:00,12.000,
1999-03-18 00:00,13.000,
1999-03-19 00:00,14.000,
1999-03-20 00:00,10.000,
1999-03-21 00:00,10.000,
1999-03-22 00:00,13.000,
1999-03-23 00:00,15.000,
1999-03-24 00:00,14.000,
1999-03-25 00:00,16.000,
1999-03-26 00:00,18.000,
1999-03-27 00:00,16.000,
1999-03-28 00:00,13.000,
1999-03-29 00:00,12.000,
1999-03-30 00:00,11.000,
1999-03-31 00:00,15.000,
1999-04-01 00:00,15.000,
1999-04-02 00:00,16.000,
1999-04-03 00:00,12.000,
1999-04-04 00:00,10.000,
1999-04-05 00:00,12.000,
1999-04-06 00:00,14.000,
1999-04-07 00:00,18.000,
1999-04-08 00:00,19.000,
1999-04-09 00:00,19.000,
1999-04-10 00:00,20.000,
1999-04-11 00:00,19.000,
1999-04-12 00:00,17.000,
1999-04-13 00:00,17.000,
1999-04-14 00:00,16.000,
1999-04-15 00:00,18.000,
1999-04-16 00:00,19.000,
1999-04-17 00:00,20.000,
1999-04-18 00:00,22.000,
1999-04-19 00:00,22.000,
1999-04-20 00:00,19.000,
1999-04-21 00:00,20.000,
1999-04-22 00:00,21.000,
1999-04-23 00:00,24.000,
1999-04-24 00:00,23.000,
1999-04-25 00:00,23.000,
1999-04-26 00:00,23.000,
1999-04-27 00:00,22.000,
1999-04-28 00:00,24.000,
1999-04-29 00:00,22.000,
1999-04-30 00:00,26.000,
1999-05-01 00:00,26.000,
1999-05-02 00:00,29.000,
1999-05-03 00:00,27.000,
1999-05-04 00:00,30.000,
1999-05-05 00:00,29.000,
1999-05-06 00:00,25.000,
1999-05-07 00:00,22.000,
1999-05-08 00:00,23.000,
1999-05-09 00:00,24.000,
1999-05-10 00:00,25.000,
1999-05-11 00:00,26.000,
1999-05-12 00:00,25.000,
1999-05-13 00:00,28.000,
1999-05-14 00:00,28.000,
1999-05-15 00:00,27.000,
1999-05-16 00:00,26.000,
1999-05-17 00:00,28.000,
1999-05-18 00:00,27.000,
1999-05-19 00:00,25.000,
1999-05-20 00:00,25.000,
1999-05-21 00:00,26.000,
1999-05-22 00:00,25.000,
1999-05-23 00:00,23.000,
1999-05-24 00:00,23.000,
1999-05-25 00:00,22.000,
1999-05-26 00:00,25.000,
1999-05-27 00:00,27.000,
1999-05-28 00:00,31.000,
1999-05-29 00:00,31.000,
1999-05-30 00:00,28.000,
1999-05-31 00:00,29.000,
1999-06-01 00:00,29.000,
1999-06-02 00:00,32.000,
1999-06-03 00:00,31.000,
1999-06-04 00:00,30.000,
1999-06-05 00:00,31.000,
1999-06-06 00:00,31.000,
1999-06-07 00:00,28.000,
1999-06-08 00:00,27.000,
1999-06-09 00:00,29.000,
1999-06-10 00:00,29.000,
1999-09-21 00:00,30.000,
1999-09-22 00:00,30.000,
1999-09-23 00:00,31.000,
1999-09-24 00:00,31.000,
1999-09-25 00:00,31.000,
1999-09-26 00:00,32.000,
1999-09-27 00:00,33.000,
1999-09-28 00:00,31.000,
1999-09-29 00:00,30.000,
1999-09-30 00:00,30.000,
1999-10-01 00:00,28.000,
1999-10-02 00:00,27.000,
1999-10-03 00:00,27.000,
1999-10-04 00:00,29.000,
1999-10-05 00:00,27.000,
1999-10-06 00:00,27.000,
1999-10-07 00:00,28.000,
1999-10-08 00:00,23.000,
1999-10-09 00:00,23.000,
1999-10-10 00:00,22.000,
1999-10-11 00:00,22.000,
1999-10-12 00:00,24.000,
1999-10-13 00:00,27.000,
1999-10-14 00:00,26.000,
1999-10-15 00:00,25.000,
1999-10-16 00:00,24.000,
1999-10-17 00:00,21.000,
1999-10-18 00:00,22.000,
1999-10-19 00:00,22.000,
1999-10-20 00:00,25.000,
1999-10-21 00:00,24.000,
1999-10-22 00:00,22.000,
1999-10-23 00:00,23.000,
1999-10-24 00:00,23.000,
1999-10-25 00:00,25.000,
1999-10-26 00:00,27.000,
1999-10-27 00:00,25.000,
1999-10-28 00:00,24.000,
1999-10-29 00:00,20.000,
1999-10-30 00:00,21.000,
1999-10-31 00:00,23.000,
1999-11-01 00:00,24.000,
1999-11-02 00:00,20.000,
1999-11-03 00:00,19.000,
1999-11-04 00:00,19.000,
1999-11-05 00:00,20.000,
1999-11-06 00:00,22.000,
1999-11-07 00:00,21.000,
1999-11-08 00:00,20.000,
1999-11-09 00:00,21.000,
1999-11-10 00:00,22.000,
1999-11-11 00:00,20.000,
1999-11-12 00:00,19.000,
1999-11-13 00:00,18.000,
1999-11-14 00:00,17.000,
1999-11-15 00:00,18.000,
1999-11-16 00:00,20.000,
1999-11-17 00:00,20.000,
1999-11-18 00:00,18.000,
1999-11-19 00:00,17.000,
1999-11-20 00:00,18.000,
1999-11-21 00:00,20.000,
1999-11-22 00:00,19.000,
1999-11-23 00:00,18.000,
1999-11-24 00:00,14.000,
1999-11-25 00:00,8.000,
1999-11-26 00:00,8.000,
1999-11-27 00:00,14.000,
1999-11-28 00:00,15.000,
1999-11-29 00:00,15.000,
1999-11-30 00:00,17.000,
1999-12-01 00:00,20.000,
1999-12-02 00:00,18.000,
1999-12-03 00:00,15.000,
1999-12-04 00:00,17.000,
1999-12-05 00:00,16.000,
1999-12-06 00:00,13.000,
1999-12-07 00:00,14.000,
1999-12-08 00:00,15.000,
1999-12-09 00:00,15.000,
1999-12-10 00:00,14.000,
1999-12-11 00:00,14.000,
1999-12-12 00:00,14.000,
1999-12-13 00:00,17.000,
1999-12-14 00:00,15.000,
1999-12-15 00:00,15.000,
1999-12-16 00:00,15.000,
1999-12-17 00:00,19.000,
1999-12-18 00:00,18.000,
1999-12-19 00:00,19.000,
1999-12-20 00:00,16.000,
1999-12-21 00:00,17.000,
1999-12-22 00:00,16.000,
1999-12-23 00:00,11.000,
1999-12-24 00:00,12.000,
1999-12-25 00:00,12.000,
1999-12-26 00:00,11.000,
1999-12-27 00:00,14.000,
1999-12-28 00:00,14.000,
1999-12-29 00:00,14.000,
1999-12-30 00:00,14.000,
1999-12-31 00:00,14.000,
2000-01-01 00:00,12.000,
2000-01-02 00:00,13.000,
2000-01-03 00:00,12.000,
2000-01-04 00:00,11.000,
2000-01-05 00:00,10.000,
2000-01-06 00:00,8.000,
2000-01-07 00:00,8.000,
2000-01-08 00:00,8.000,
2000-01-09 00:00,10.000,
2000-01-10 00:00,9.000,
2000-01-11 00:00,8.000,
2000-01-12 00:00,7.000,
2000-01-13 00:00,9.000,
2000-01-14 00:00,11.000,
2000-01-15 00:00,13.000,
2000-01-16 00:00,14.000,
2000-01-17 00:00,9.000,
2000-01-18 00:00,5.000,
2000-01-19 00:00,7.000,
2000-01-20 00:00,1.000,
2000-01-21 00:00,5.000,
2000-01-22 00:00,7.000,
2000-01-23 00:00,11.000,
2000-01-24 00:00,11.000,
2000-01-25 00:00,10.000,
2000-01-26 00:00,5.000,
2000-01-27 00:00,2.000,
2000-01-28 00:00,7.000,
2000-01-29 00:00,8.000,
2000-01-30 00:00,12.000,
2000-01-31 00:00,14.000,
2000-02-01 00:00,16.000,
2000-02-02 00:00,18.000,
2000-02-03 00:00,16.000,
2000-02-04 00:00,10.000,
2000-02-05 00:00,9.000,
2000-02-06 00:00,16.000,
2000-02-07 00:00,15.000,
2000-02-08 00:00,15.000,
2000-02-09 00:00,10.000,
2000-02-10 00:00,10.000,
2000-02-11 00:00,16.000,
2000-02-12 00:00,15.000,
2000-02-13 00:00,16.000,
2000-02-14 00:00,13.000,
2000-02-15 00:00,7.000,
2000-02-16 00:00,12.000,
2000-02-17 00:00,9.000,
2000-02-18 00:00,14.000,
2000-02-19 00:00,11.000,
2000-02-20 00:00,13.000,
2000-02-21 00:00,13.000,
2000-02-22 00:00,13.000,
2000-02-23 00:00,12.000,
2000-02-24 00:00,9.000,
2000-02-25 00:00,8.000,
2000-02-26 00:00,11.000,
2000-02-27 00:00,12.000,
2000-02-28 00:00,9.000,
2000-02-29 00:00,11.000,
2000-03-01 00:00,12.000,
2000-03-02 00:00,12.000,
2000-03-03 00:00,14.000,
2000-03-04 00:00,11.000,
2000-03-05 00:00,13.000,
2000-03-06 00:00,8.000,
2000-03-07 00:00,6.000,
2000-03-08 00:00,13.000,
2000-03-09 00:00,17.000,
2000-03-10 00:00,14.000,
2000-03-11 00:00,15.000,
2000-03-12 00:00,15.000,
2000-03-13 00:00,16.000,
2000-03-14 00:00,18.000,
2000-03-15 00:00,17.000,
2000-03-16 00:00,16.000,
2000-03-17 00:00,13.000,
2000-03-18 00:00,9.000,
2000-03-19 00:00,9.000,
2000-03-20 00:00,9.000,
2000-03-21 00:00,9.000,
2000-03-22 00:00,8.000,
2000-03-23 00:00,10.000,
2000-03-24 00:00,17.000,
2000-03-25 00:00,20.000,
2000-03-26 00:00,19.000,
2000-03-27 00:00,15.000,
2000-03-28 00:00,16.000,
2000-03-29 00:00,15.000,
2000-03-30 00:00,22.000,
2000-03-31 00:00,23.000,
2000-04-01 00:00,23.000,
2000-04-02 00:00,24.000,
2000-04-03 00:00,23.000,
2000-04-04 00:00,22.000,
2000-04-05 00:00,20.000,
2000-04-06 00:00,15.000,
2000-04-07 00:00,16.000,
2000-04-08 00:00,17.000,
2000-04-09 00:00,17.000,
2000-04-10 00:00,16.000,
2000-04-11 00:00,14.000,
2000-04-12 00:00,23.000,
2000-04-13 00:00,20.000,
2000-04-14 00:00,25.000,
2000-04-15 00:00,24.000,
2000-04-16 00:00,21.000,
2000-04-17 00:00,23.000,
2000-04-18 00:00,25.000,
2000-04-19 00:00,20.000,
2000-04-20 00:00,,
2000-04-21 00:00,,
2000-04-22 00:00,,
2000-04-23 00:00,,
2000-04-24 00:00,,
2000-04-25 00:00,,
2000-04-26 00:00,,
2000-04-27 00:00,,
2000-04-28 00:00,,
2000-04-29 00:00,,
2000-04-30 00:00,,
2000-05-01 00:00,21.000,
2000-05-02 00:00,19.000,
2000-05-03 00:00,21.000,
2000-05-04 00:00,19.000,
2000-05-05 00:00,18.000,
2000-05-06 00:00,20.000,
2000-05-07 00:00,19.000,
2000-05-08 00:00,23.000,
2000-05-09 00:00,25.000,
2000-05-10 00:00,26.000,
2000-05-11 00:00,28.000,
2000-05-12 00:00,28.000,
2000-05-13 00:00,30.000,
2000-05-14 00:00,30.000,
2000-05-15 00:00,28.000,
2000-05-16 00:00,26.000,
2000-05-17 00:00,25.000,
2000-05-18 00:00,27.000,
2000-05-19 00:00,26.000,
2000-05-20 00:00,28.000,
2000-05-21 00:00,26.000,
2000-05-22 00:00,28.000,
2000-05-23 00:00,28.000,
2000-05-24 00:00,23.000,
2000-05-25 00:00,21.000,
2000-05-26 00:00,20.000,
2000-05-27 00:00,28.000,
2000-05-28 00:00,27.000,
2000-05-29 00:00,28.000,
2000-05-30 00:00,28.000,
2000-05-31 00:00,30.000,
2000-06-01 00:00,30.000,
2000-06-02 00:00,26.000,
2000-06-03 00:00,26.000,
2000-06-04 00:00,27.000,
2000-06-05 00:00,28.000,
2000-06-06 00:00,31.000,
2000-06-07 00:00,32.000,
2000-06-08 00:00,32.000,
2000-06-09 00:00,33.000,
2000-06-10 00:00,34.000,
2000-06-11 00:00,31.000,
2000-06-12 00:00,31.000,
2000-06-13 00:00,32.000,
2000-06-14 00:00,33.000,
2000-06-15 00:00,,
2000-09-12 00:00,28.000,
2000-09-13 00:00,28.000,
2000-09-14 00:00,29.000,
2000-09-15 00:00,29.000,
2000-09-16 00:00,28.000,
2000-09-17 00:00,30.000,
2000-09-18 00:00,29.000,
2000-09-19 00:00,30.000,
2000-09-20 00:00,33.000,
2000-09-21 00:00,33.000,
2000-09-22 00:00,32.000,
2000-09-23 00:00,33.000,
2000-09-24 00:00,29.000,
2000-09-25 00:00,22.000,
2000-09-26 00:00,22.000,
2000-09-27 00:00,20.000,
2000-09-28 00:00,20.000,
2000-09-29 00:00,23.000,
2000-09-30 00:00,24.000,
2000-10-01 00:00,25.000,
2000-10-02 00:00,31.000,
2000-10-03 00:00,31.000,
2000-10-04 00:00,29.000,
2000-10-05 00:00,29.000,
2000-10-06 00:00,26.000,
2000-10-07 00:00,26.000,
2000-10-08 00:00,24.000,
2000-10-09 00:00,23.000,
2000-10-10 00:00,19.000,
2000-10-11 00:00,24.000,
2000-10-12 00:00,24.000,
2000-10-13 00:00,24.000,
2000-10-14 00:00,24.000,
2000-10-15 00:00,25.000,
2000-10-16 00:00,27.000,
2000-10-17 00:00,25.000,
2000-10-18 00:00,23.000,
2000-10-19 00:00,23.000,
2000-10-20 00:00,17.000,
2000-10-21 00:00,16.000,
2000-10-22 00:00,16.000,
2000-10-23 00:00,15.000,
2000-10-24 00:00,14.000,
2000-10-25 00:00,19.000,
2000-10-26 00:00,20.000,
2000-10-27 00:00,18.000,
2000-10-28 00:00,14.000,
2000-10-29 00:00,19.000,
2000-10-30 00:00,21.000,